GW5703 Weather Reports


time (UTC)temp
F
wind
direction
speed
knots
gust
knots
rain 1hr
in
rain 24hr
in
rain mn
in
humidity
%
barometer
mb
20260510081022 48 68 2.6 3.5 0.00 0.00 0.00 74 1017.2
20260510080022 48 113 2.6 4.3 0.00 0.00 0.00 73 1017.1
20260510075021 48 68 1.7 3.5 0.00 0.00 0.00 72 1017.0
20260510074024 48 315 1.7 1.7 0.00 0.00 0.00 72 1017.0
20260510073021 48 90 2.6 3.5 0.00 0.00 0.00 72 1016.9
20260510072022 48 248 1.7 2.6 0.00 0.00 0.00 72 1017.1
20260510071022 48 135 1.7 2.6 0.00 0.00 0.00 73 1016.9
20260510070024 48 68 3.5 4.3 0.00 0.00 0.00 75 1016.7
20260510065022 47 158 3.5 4.3 0.00 0.00 0.00 77 1016.7
20260510064021 48 135 1.7 3.5 0.00 0.00 0.00 78 1016.7
20260510063024 48 135 2.6 4.3 0.00 0.00 0.00 76 1016.7
20260510062022 48 180 6.1 9.6 0.00 0.00 0.00 77 1016.9
20260510061022 48 203 6.1 8.7 0.00 0.00 0.00 75 1016.8
20260510060024 49 158 3.5 6.1 0.00 0.00 0.00 75 1016.6
20260510055022 48 180 2.6 6.1 0.00 0.00 0.00 78 1016.3
20260510054021 48 135 1.7 1.7 0.00 0.00 0.00 78 1016.5
20260510053024 48 68 1.7 2.6 0.00 0.00 0.00 77 1016.6
20260510052025 49 90 3.5 4.3 0.00 0.00 0.00 76 1016.7
20260510051022 49 135 2.6 4.3 0.00 0.00 0.00 76 1016.7
20260510050022 49 23 2.6 3.5 0.00 0.00 0.00 76 1016.9
20260510045021 49 23 2.6 3.5 0.00 0.00 0.00 76 1016.8
20260510044024 49 68 4.3 7.0 0.00 0.00 0.00 75 1016.7
20260510043021 49 113 1.7 2.6 0.00 0.00 0.00 74 1016.9
20260510042022 49 90 2.6 4.3 0.00 0.00 0.00 74 1017.0
20260510041022 49 203 5.2 7.8 0.00 0.00 0.00 73 1017.1
20260510040021 49 135 4.3 5.2 0.00 0.00 0.00 73 1017.0
20260510035026 50 135 2.6 4.3 0.00 0.00 0.00 71 1017.1
20260510034023 50 225 3.5 6.1 0.00 0.00 0.00 70 1017.3
20260510033026 50 270 4.3 8.7 0.00 0.00 0.00 69 1017.4
20260510032022 50 180 3.5 6.1 0.00 0.00 0.00 68 1017.3
20260510031021 50 135 5.2 8.7 0.00 0.00 0.00 67 1017.3
20260510030022 50 135 2.6 4.3 0.00 0.00 0.00 67 1017.3
20260510025021 50 180 3.5 4.3 0.00 0.00 0.00 67 1017.1
20260510024022 51 180 2.6 2.6 0.00 0.00 0.00 66 1017.2
20260510023023 50 135 2.6 2.6 0.00 0.00 0.00 66 1016.9
20260510022022 51 180 3.5 4.3 0.00 0.00 0.00 65 1017.0
20260510021023 51 180 2.6 3.5 0.00 0.00 0.00 65 1017.0
20260510020022 50 68 1.7 1.7 0.00 0.00 0.00 65 1016.7
20260510015022 51 135 0.9 1.7 0.00 0.00 0.00 64 1016.6
20260510014022 51 113 0.9 1.7 0.00 0.00 0.00 62 1016.3
20260510013022 51 203 4.3 6.1 0.00 0.00 0.00 61 1016.2
20260510012021 52 68 2.6 4.3 0.00 0.00 0.00 60 1016.1
20260510011021 52 203 0.9 2.6 0.00 0.00 0.00 59 1015.9
20260510010022 52 180 4.3 5.2 0.00 0.00 0.00 57 1016.1
20260510005022 53 203 4.3 5.2 0.00 0.00 0.00 56 1015.9
20260510004022 53 135 0.0 0.9 0.00 0.00 0.00 55 1015.7
20260510003022 52 158 0.9 1.7 0.00 0.00 0.00 55 1015.6
20260510002023 53 203 2.6 3.5 0.00 0.00 0.00 53 1015.5
20260510001022 54 180 0.0 0.9 0.00 0.00 0.00 52 1015.2
20260510000022 54 180 0.9 1.7 0.00 0.00 0.00 50 1015.2
20260509235022 55 90 1.7 2.6 0.00 0.00 0.00 49 1015.1
20260509234022 55 360 1.7 2.6 0.00 0.00 0.00 49 1015.1
20260509233024 56 90 2.6 4.3 0.00 0.00 0.00 49 1015.0
20260509232021 57 135 4.3 6.1 0.00 0.00 0.00 50 1015.0
20260509231022 57 68 2.6 3.5 0.00 0.00 0.00 51 1015.0
20260509230021 57 270 1.7 4.3 0.00 0.00 0.00 51 1015.0
20260509225022 58 158 3.5 6.1 0.00 0.00 0.00 50 1015.0
20260509224022 59 203 3.5 5.2 0.00 0.00 0.00 47 1014.9
20260509223022 59 180 7.0 11.3 0.00 0.00 0.00 48 1014.9
20260509222021 58 158 2.6 3.5 0.00 0.00 0.00 51 1015.1
20260509221022 59 180 5.2 8.7 0.00 0.00 0.00 50 1015.1
20260509220021 58 248 5.2 6.1 0.00 0.00 0.00 51 1014.9
20260509215022 58 90 1.7 2.6 0.00 0.00 0.00 52 1014.8
20260509214022 58 135 6.1 7.8 0.00 0.00 0.00 51 1014.9
20260509213021 59 158 4.3 5.2 0.00 0.00 0.00 51 1014.7
20260509212022 59 90 2.6 3.5 0.00 0.00 0.00 51 1014.7
20260509211023 59 203 2.6 4.3 0.00 0.00 0.00 49 1014.6
20260509210022 59 158 6.1 7.0 0.00 0.00 0.00 51 1014.5
20260509205024 58 158 3.5 4.3 0.00 0.00 0.00 53 1014.6
20260509204022 58 158 6.1 7.8 0.00 0.00 0.00 51 1014.6
20260509203022 59 158 7.0 8.7 0.00 0.00 0.00 49 1014.4
20260509202021 60 203 7.8 8.7 0.00 0.00 0.00 48 1014.3
20260509201022 60 225 7.0 8.7 0.00 0.00 0.00 46 1014.1
20260509200022 62 203 3.5 4.3 0.00 0.00 0.00 46 1014.3
20260509195022 62 225 2.6 4.3 0.00 0.00 0.00 45 1014.2
20260509194022 59 203 2.6 2.6 0.00 0.00 0.00 50 1014.3
20260509193022 58 270 2.6 4.3 0.00 0.00 0.00 50 1014.4
20260509192024 59 225 2.6 3.5 0.00 0.00 0.00 49 1014.5
20260509191022 59 158 3.5 6.1 0.00 0.00 0.00 48 1014.7
20260509190021 57 203 6.1 8.7 0.00 0.00 0.00 51 1014.7
20260509185021 57 68 4.3 5.2 0.00 0.00 0.00 52 1014.7
20260509184022 58 225 0.9 1.7 0.00 0.00 0.00 52 1014.7
20260509183023 58 203 4.3 6.1 0.00 0.00 0.00 52 1014.7
20260509182022 57 203 4.3 4.3 0.00 0.00 0.00 53 1014.9
20260509181021 58 270 3.5 4.3 0.00 0.00 0.00 51 1014.9
20260509180022 58 360 2.6 3.5 0.00 0.00 0.00 52 1014.8
20260509175022 58 203 3.5 6.1 0.00 0.00 0.00 52 1014.9
20260509174022 56 225 6.1 8.7 0.00 0.00 0.00 54 1015.0
20260509173022 56 225 6.1 7.8 0.00 0.00 0.00 54 1015.1
20260509172022 57 248 8.7 10.4 0.00 0.00 0.00 52 1015.2
20260509171022 57 135 3.5 5.2 0.00 0.00 0.00 53 1015.3
20260509170021 58 113 2.6 4.3 0.00 0.00 0.00 51 1015.4
20260509165022 57 225 5.2 7.8 0.00 0.00 0.00 55 1015.3
20260509164021 57 203 5.2 6.1 0.00 0.00 0.00 55 1015.1
20260509163024 55 203 1.7 2.6 0.00 0.00 0.00 60 1015.2
20260509162022 55 180 1.7 2.6 0.00 0.00 0.00 59 1015.3
20260509161024 55 248 4.3 6.1 0.00 0.00 0.00 57 1015.2
20260509160021 54 248 1.7 2.6 0.00 0.00 0.00 63 1015.1
20260509155022 56 203 4.3 6.1 0.00 0.00 0.00 60 1015.0
20260509154022 56 158 0.9 1.7 0.00 0.00 0.00 60 1015.1
20260509153022 57 113 1.7 2.6 0.00 0.00 0.00 58 1015.0
20260509152021 56 248 2.6 3.5 0.00 0.00 0.00 60 1015.1
20260509151022 55 225 5.2 7.8 0.00 0.00 0.00 61 1015.1
20260509150024 56 225 0.9 1.7 0.00 0.00 0.00 61 1015.3
20260509145022 56 248 3.5 4.3 0.00 0.00 0.00 62 1015.1
20260509144022 55 90 1.7 2.6 0.00 0.00 0.00 60 1015.1
20260509143022 55 203 3.5 4.3 0.00 0.00 0.00 61 1014.9
20260509142022 55 270 6.1 7.0 0.00 0.00 0.00 59 1014.9
20260509141021 55 203 2.6 4.3 0.00 0.00 0.00 63 1014.7
20260509140022 54 225 6.1 7.8 0.00 0.00 0.00 62 1014.7
20260509135021 52 270 3.5 5.2 0.00 0.00 0.00 68 1014.8
20260509134022 51 158 3.5 4.3 0.00 0.00 0.00 71 1015.1
20260509133024 49 270 2.6 4.3 0.00 0.00 0.00 77 1015.2
20260509132022 48 225 6.1 8.7 0.00 0.00 0.00 78 1015.3
20260509131022 48 225 11.3 13.0 0.00 0.00 0.00 79 1015.4
20260509130021 48 203 6.1 8.7 0.00 0.00 0.00 80 1015.5
20260509125022 47 203 8.7 11.3 0.00 0.00 0.00 80 1015.5
20260509124022 47 225 12.2 15.6 0.00 0.00 0.00 81 1015.6
20260509123022 47 158 8.7 13.0 0.00 0.00 0.00 80 1015.5
20260509122021 47 225 8.7 11.3 0.00 0.00 0.00 80 1015.5
20260509121022 48 225 6.1 8.7 0.00 0.00 0.00 80 1015.5
20260509120022 47 225 6.1 6.1 0.00 0.00 0.00 80 1015.6
20260509115024 47 225 4.3 5.2 0.00 0.00 0.00 80 1015.5
20260509114022 47 248 5.2 6.1 0.00 0.00 0.00 80 1015.5
20260509113022 47 225 6.1 8.7 0.00 0.00 0.00 80 1015.3
20260509112022 47 203 7.0 8.7 0.00 0.00 0.00 81 1015.3
20260509111022 47 203 7.0 9.6 0.00 0.00 0.00 80 1015.3
20260509110021 47 225 7.8 8.7 0.00 0.00 0.00 80 1015.3
20260509105022 47 248 7.8 9.6 0.00 0.00 0.00 80 1015.3
20260509104021 46 203 8.7 12.2 0.00 0.00 0.00 81 1015.1
20260509103022 46 180 7.8 10.4 0.00 0.00 0.00 83 1015.2
20260509102022 46 225 7.8 10.4 0.00 0.00 0.00 83 1015.3
20260509101022 46 225 6.1 7.0 0.00 0.00 0.00 83 1015.3
20260509100021 46 225 5.2 6.1 0.00 0.00 0.00 82 1015.2
20260509095022 46 225 8.7 11.3 0.00 0.00 0.00 83 1015.3
20260509094022 46 270 9.6 12.2 0.00 0.00 0.00 84 1015.3
20260509093021 45 203 10.4 14.8 0.00 0.00 0.00 84 1015.3
20260509092024 45 225 12.2 15.6 0.00 0.00 0.00 83 1015.4
20260509091021 45 225 9.6 13.0 0.00 0.00 0.00 83 1015.4
20260509090024 45 225 11.3 13.0 0.00 0.00 0.00 83 1015.5
20260509085022 45 270 10.4 16.5 0.00 0.00 0.00 82 1015.6
20260509084021 45 248 11.3 15.6 0.00 0.00 0.00 81 1015.5
20260509083022 46 225 12.2 13.0 0.00 0.00 0.00 80 1015.6
20260509082021 46 203 15.6 19.1 0.00 0.00 0.00 80 1015.5